Location: ?????????
(53.2086°N, 54.0693°E)
Time: 20:13:44
(UTC+00:00)

NOSS 3-4 (C) - Pass Details

Date: 08 December 2019
Orbit: 904 x 1309 km, 63.4° (Epoch: 19 January)

Event Time Altitude Azimuth Distance (km) Brightness Sun altitude
Rises 14:05:02 0° 234° (SW) 3,536 7.8 -16.5°
Reaches altitude 10° 14:07:30 10° 236° (SW) 2,617 6.9 -16.9°
Maximum altitude 14:13:34 74° 321° (NW) 1,007 3.6 -17.7°
Enters shadow 14:17:48 23° 43° (NE) 1,987 4.6 -18.3°
